Terug naar catalogus

STARLINK-37596

ActiefCommunicatieSSO
NORAD 69032·PAYLOAD·🇺🇸 United States

Gelanceerd May 6, 2026 vanaf Vandenberg Space Force Base

Loading…

Volgende Passages (komende 24 uur)

TLE

VersSource: CelesTrak SupGP

Epoch: Sep 15, 2026, 03:55 UTC

1 69032C 26101H   26258.16368056 -.00037410  00000+0 -11609-2 0  2581
2 69032  97.2851 111.7970 0001919  94.1668 351.7021 15.33469035    13

Volg STARLINK-37596 in realtime met AllMySat

Download on the App Store